Weather History for Petaluma, CA

Change the Weather History Date:

Tuesday, June 3, 2014

  Actual Average (KAPC) Record (KAPC)
Temperature  
Mean Temperature 60 °F 62 °F  
Max Temperature 69 °F 77 °F 86 °F (2006)
Min Temperature 50 °F 48 °F 39 °F (1982)
Degree Days  
Heating Degree Days 6    
Month to date heating degree days  
Since 1 June heating degree days  
Since 1 July heating degree days  
Cooling Degree Days 0    
Month to date cooling degree days  
Year to date cooling degree days  
Since 1 June cooling degree days  
Growing Degree Days 10 (Base 50)    
Moisture  
Dew Point 51 °F    
Average Humidity 87    
Maximum Humidity 100    
Minimum Humidity 60    
Precipitation  
Precipitation 0.00 in - 0.22 in (1967)
Month to date precipitation  
Year to date precipitation  
Since 1 July precipitation  
Sea Level Pressure  
Sea Level Pressure 29.93 in    
Wind  
Wind Speed 4 mph (WNW)    
Max Wind Speed 14 mph    
Max Gust Speed 20 mph    
Visibility 10 miles    
Events      
T = Trace of Precipitation, MM = Missing Value Source: NWS Daily Summary

Daily Weather History Graph

Daily Weather History Graph

Search for Another Location

Airport:

Trip Planner

Search our weather history database for the weather conditions in past years. The results will help you decide how hot, cold, wet, or windy it might be!

Date:

Astronomy

Jun. 03, 2014 Rise Set
Actual Time 5:48 AM PDT 8:29 PM PDT
Civil Twilight 5:16 AM PDT 9:00 PM PDT
Nautical Twilight 4:38 AM PDT 9:39 PM PDT
Astronomical Twilight 3:54 AM PDT 10:23 PM PDT
Moon 11:13 AM PDT (6/3) 12:03 AM PDT (6/3)
Length of Visible Light 15h 43m
Length of Day
14h 41m
Waxing Crescent, 31% of the Moon is Illuminated
Jun 3
Waxing Crescent
Jun 5
First Quarter
Jun 12
Full
Jun 19
Last Quarter
Jun 27
New

Hourly Weather History & Observations

Time (PDT) Temp. Dew Point Humidity Pressure Visibility Wind Dir Wind Speed Gust Speed Precip Events Conditions
12:15 AM 51.8 °F 50.0 °F 94% 29.93 in 10.0 mi Calm Calm - N/A   Overcast
12:35 AM 51.8 °F 50.0 °F 94% 29.94 in 10.0 mi WSW 5.8 mph - N/A   Overcast
12:55 AM 51.8 °F 50.0 °F 94% 29.93 in 10.0 mi Calm Calm - N/A   Overcast
1:15 AM 51.8 °F 51.8 °F 100% 29.93 in 10.0 mi Calm Calm - N/A   Overcast
1:35 AM 51.8 °F 51.8 °F 100% 29.93 in 10.0 mi Calm Calm - N/A   Overcast
1:55 AM 51.8 °F 50.0 °F 94% 29.93 in 10.0 mi SW 4.6 mph - N/A   Overcast
2:15 AM 50.0 °F 50.0 °F 100% 29.92 in 10.0 mi West 4.6 mph - N/A   Overcast
2:35 AM 50.0 °F 50.0 °F 100% 29.92 in 10.0 mi WSW 4.6 mph - N/A   Overcast
2:55 AM 50.0 °F 50.0 °F 100% 29.92 in 10.0 mi Calm Calm - N/A   Overcast
3:15 AM 50.0 °F 50.0 °F 100% 29.92 in 10.0 mi Calm Calm - N/A   Overcast
3:35 AM 50.0 °F 50.0 °F 100% 29.92 in 10.0 mi SW 4.6 mph - N/A   Overcast
3:55 AM 50.0 °F 50.0 °F 100% 29.92 in 10.0 mi Calm Calm - N/A   Overcast
4:15 AM 50.0 °F 50.0 °F 100% 29.92 in 10.0 mi Calm Calm - N/A   Overcast
4:35 AM 50.0 °F 50.0 °F 100% 29.92 in 10.0 mi SE 4.6 mph - N/A   Overcast
4:55 AM 50.0 °F 50.0 °F 100% 29.92 in 10.0 mi Calm Calm - N/A   Overcast
5:15 AM 50.0 °F 50.0 °F 100% 29.93 in 10.0 mi Calm Calm - N/A   Overcast
5:35 AM 50.0 °F 50.0 °F 100% 29.93 in 10.0 mi Calm Calm - N/A   Overcast
5:55 AM 50.0 °F 50.0 °F 100% 29.94 in 10.0 mi NW 3.5 mph - N/A   Overcast
6:15 AM 50.0 °F 50.0 °F 100% 29.94 in 10.0 mi WNW 4.6 mph - N/A   Overcast
6:35 AM 50.0 °F 50.0 °F 100% 29.95 in 10.0 mi WNW 4.6 mph - N/A   Overcast
6:55 AM 50.0 °F 50.0 °F 100% 29.96 in 10.0 mi NW 3.5 mph - N/A   Overcast
7:15 AM 50.0 °F 50.0 °F 100% 29.96 in 10.0 mi WSW 6.9 mph - N/A   Overcast
7:35 AM 50.0 °F 50.0 °F 100% 29.96 in 10.0 mi West 5.8 mph - N/A   Overcast
7:55 AM 50.0 °F 50.0 °F 100% 29.96 in 10.0 mi WSW 6.9 mph - N/A   Overcast
8:15 AM 50.0 °F 50.0 °F 100% 29.96 in 10.0 mi WSW 3.5 mph - N/A   Overcast
8:35 AM 50.0 °F 50.0 °F 100% 29.97 in 10.0 mi WSW 5.8 mph - N/A   Overcast
8:55 AM 50.0 °F 50.0 °F 100% 29.98 in 10.0 mi West 3.5 mph - N/A   Overcast
9:15 AM 51.8 °F 50.0 °F 94% 29.98 in 10.0 mi Calm Calm - N/A   Overcast
9:35 AM 51.8 °F 50.0 °F 94% 29.98 in 10.0 mi Calm Calm - N/A   Overcast
9:55 AM 53.6 °F 50.0 °F 88% 29.98 in 10.0 mi Calm Calm - N/A   Overcast
10:15 AM 53.6 °F 50.0 °F 88% 29.98 in 10.0 mi WSW 4.6 mph - N/A   Overcast
10:35 AM 53.6 °F 50.0 °F 88% 29.98 in 10.0 mi Calm Calm - N/A   Overcast
10:55 AM 55.4 °F 50.0 °F 82% 29.98 in 10.0 mi West 4.6 mph - N/A   Overcast
11:15 AM 57.2 °F 51.8 °F 82% 29.97 in 10.0 mi NNW 4.6 mph - N/A   Overcast
11:35 AM 57.2 °F 51.8 °F 82% 29.97 in 10.0 mi NW 5.8 mph - N/A   Overcast
11:55 AM 59.0 °F 51.8 °F 77% 29.97 in 10.0 mi West 6.9 mph - N/A   Mostly Cloudy
12:15 PM 60.8 °F 51.8 °F 72% 29.96 in 10.0 mi West 8.1 mph - N/A   Clear
12:35 PM 62.6 °F 51.8 °F 68% 29.96 in 10.0 mi West 6.9 mph - N/A   Clear
12:55 PM 64.4 °F 51.8 °F 64% 29.95 in 10.0 mi WNW 5.8 mph - N/A   Clear
1:15 PM 66.2 °F 53.6 °F 64% 29.95 in 10.0 mi NW 5.8 mph - N/A   Clear
1:35 PM 66.2 °F 55.4 °F 68% 29.94 in 10.0 mi NW 4.6 mph - N/A   Clear
1:55 PM 68.0 °F 55.4 °F 64% 29.93 in 10.0 mi West 8.1 mph - N/A   Clear
2:15 PM 68.0 °F 53.6 °F 60% 29.93 in 10.0 mi West 5.8 mph - N/A   Clear
2:35 PM 69.8 °F 55.4 °F 60% 29.92 in 10.0 mi West 12.7 mph 17.3 mph N/A   Clear
2:55 PM 69.8 °F 55.4 °F 60% 29.92 in 10.0 mi West 10.4 mph - N/A   Clear
3:15 PM 69.8 °F 55.4 °F 60% 29.92 in 10.0 mi West 11.5 mph - N/A   Clear
3:35 PM 68.0 °F 55.4 °F 64% 29.92 in 10.0 mi WNW 11.5 mph 17.3 mph N/A   Clear
3:55 PM 68.0 °F 53.6 °F 60% 29.92 in 10.0 mi West 13.8 mph 17.3 mph N/A   Clear
4:15 PM 66.2 °F 55.4 °F 68% 29.92 in 10.0 mi WNW 13.8 mph 18.4 mph N/A   Clear
4:35 PM 66.2 °F 53.6 °F 64% 29.92 in 10.0 mi West 13.8 mph 19.6 mph N/A   Clear
4:55 PM 64.4 °F 53.6 °F 68% 29.91 in 10.0 mi WNW 10.4 mph 17.3 mph N/A   Clear
5:15 PM 64.4 °F 53.6 °F 68% 29.91 in 10.0 mi WNW 6.9 mph - N/A   Clear
5:35 PM 64.4 °F 53.6 °F 68% 29.90 in 10.0 mi NW 6.9 mph - N/A   Clear
5:55 PM 62.6 °F 51.8 °F 68% 29.90 in 10.0 mi WNW 9.2 mph - N/A   Clear
6:15 PM 62.6 °F 51.8 °F 68% 29.90 in 10.0 mi NW 9.2 mph - N/A   Clear
6:35 PM 62.6 °F 51.8 °F 68% 29.90 in 10.0 mi NW 5.8 mph - N/A   Clear
7:15 PM 59.0 °F 50.0 °F 72% 29.89 in 10.0 mi NW 5.8 mph - N/A   Clear
7:35 PM 57.2 °F 50.0 °F 77% 29.89 in 10.0 mi NW 5.8 mph - N/A   Clear
8:15 PM 55.4 °F 50.0 °F 82% 29.89 in 10.0 mi NW 5.8 mph - N/A   Clear
8:35 PM 53.6 °F 50.0 °F 88% 29.89 in 10.0 mi NW 6.9 mph - N/A   Clear
8:55 PM 51.8 °F 50.0 °F 94% 29.89 in 10.0 mi NW 6.9 mph - N/A   Partly Cloudy
9:15 PM 50.0 °F 50.0 °F 100% 29.89 in 10.0 mi NW 6.9 mph - N/A   Mostly Cloudy
9:35 PM 50.0 °F 50.0 °F 100% 29.90 in 9.0 mi NW 5.8 mph - N/A   Overcast
9:55 PM 50.0 °F 50.0 °F 100% 29.90 in 8.0 mi NW 3.5 mph - N/A   Overcast
10:15 PM 50.0 °F 50.0 °F 100% 29.90 in 7.0 mi NW 3.5 mph - N/A   Overcast
10:35 PM 50.0 °F 50.0 °F 100% 29.91 in 7.0 mi NNW 3.5 mph - N/A   Overcast
10:55 PM 50.0 °F 50.0 °F 100% 29.90 in 7.0 mi NNW 4.6 mph - N/A   Overcast
11:15 PM 50.0 °F 50.0 °F 100% 29.90 in 7.0 mi Calm Calm - N/A   Overcast
11:35 PM 50.0 °F 50.0 °F 100% 29.90 in 7.0 mi Calm Calm - N/A   Overcast
11:55 PM 50.0 °F 50.0 °F 100% 29.91 in 5.0 mi WNW 3.5 mph - N/A   Mostly Cloudy